FW5837 Weather Reports


Display with metric or nautical units.
time (UTC)temp
F
wind
direction
speed
MPH
gust
MPH
rain 1hr
in
rain 24hr
in
rain mn
in
humidity
%
barometer
mb
20260831200530 72 213 1.0 6.0 0.00 0.00 0.00 63 1020.8
20260831200047 72 0 0.0 4.0 0.00 0.00 0.00 62 1020.9
20260831195530 73 209 1.0 5.0 0.00 0.00 0.00 58 1021.0
20260831195028 74 236 1.0 7.0 0.00 0.00 0.00 59 1021.1
20260831194613 74 174 1.0 8.0 0.00 0.00 0.00 56 1021.1
20260831194029 75 221 2.0 8.0 0.00 0.00 0.00 57 1021.2
20260831193530 74 244 3.0 8.0 0.00 0.00 0.00 56 1021.2
20260831193054 74 276 3.0 8.0 0.00 0.00 0.00 53 1021.3
20260831192528 74 267 2.0 7.0 0.00 0.00 0.00 55 1021.3
20260831192030 74 0 0.0 6.0 0.00 0.00 0.00 57 1021.4
20260831191549 74 211 2.0 7.0 0.00 0.00 0.00 58 1021.5
20260831191029 73 199 2.0 7.0 0.00 0.00 0.00 61 1021.4
20260831190529 73 303 0.0 7.0 0.00 0.00 0.00 64 1021.4
20260831190108 73 254 1.0 6.0 0.00 0.00 0.00 61 1021.5
20260831185532 72 258 1.0 7.0 0.00 0.00 0.00 62 1021.4
20260831185032 72 255 2.0 7.0 0.00 0.00 0.00 60 1021.5
20260831184605 71 259 1.0 5.0 0.00 0.00 0.00 65 1021.5
20260831184031 71 0 0.0 3.0 0.00 0.00 0.00 65 1021.6
20260831183530 71 0 0.0 5.0 0.00 0.00 0.00 65 1021.7
20260831183059 71 0 0.0 5.0 0.00 0.00 0.00 64 1021.7
20260831182529 69 184 0.0 5.0 0.00 0.00 0.00 73 1021.7
20260831182035 68 0 1.0 7.0 0.00 0.00 0.00 71 1021.7
20260831181559 68 95 3.0 9.0 0.00 0.00 0.00 73 1021.7
20260831181028 68 37 5.0 9.0 0.00 0.00 0.00 72 1021.6
20260831180531 68 61 4.0 7.0 0.00 0.00 0.00 74 1021.6
20260831180055 68 0 2.0 5.0 0.00 0.00 0.00 75 1021.9
20260831175532 68 82 2.0 5.0 0.00 0.00 0.00 72 1021.7
20260831175029 69 66 3.0 5.0 0.00 0.00 0.00 70 1021.7
20260831174549 70 70 3.0 5.0 0.00 0.00 0.00 69 1021.6
20260831174031 71 67 0.0 0.0 0.00 0.00 0.00 69 1021.8
20260831173529 71 0 0.0 7.0 0.00 0.00 0.00 69 1021.9
20260831173059 70 0 0.0 7.0 0.00 0.00 0.00 67 1021.9
20260831172529 71 100 2.0 7.0 0.00 0.00 0.00 63 1021.9
20260831172029 71 0 0.0 7.0 0.00 0.00 0.00 63 1022.0
20260831171554 71 0 1.0 7.0 0.00 0.00 0.00 64 1022.0
20260831171032 71 173 1.0 7.0 0.00 0.00 0.00 62 1022.0
20260831170534 71 119 2.0 6.0 0.00 0.00 0.00 62 1022.0
20260831170048 71 106 2.0 6.0 0.00 0.00 0.00 62 1022.0
20260831165530 71 67 0.0 4.0 0.00 0.00 0.00 63 1022.1
20260831165029 71 155 1.0 4.0 0.00 0.00 0.00 61 1022.3
20260831164606 71 0 1.0 4.0 0.00 0.00 0.00 62 1022.4
20260831164030 71 0 0.0 5.0 0.00 0.00 0.00 64 1022.4
20260831163528 71 39 1.0 7.0 0.00 0.00 0.00 61 1022.5
20260831163056 71 194 2.0 7.0 0.00 0.00 0.00 62 1022.4
20260831162533 72 156 1.0 6.0 0.00 0.00 0.00 60 1022.4
20260831162030 72 159 2.0 6.0 0.00 0.00 0.00 60 1022.4
20260831161555 72 182 0.0 6.0 0.00 0.00 0.00 63 1022.4
20260831161035 72 0 0.0 6.0 0.00 0.00 0.00 63 1022.5
20260831160529 71 123 2.0 6.0 0.00 0.00 0.00 62 1022.5
20260831160107 71 117 2.0 7.0 0.00 0.00 0.00 62 1022.5
20260831155536 71 110 2.0 7.0 0.00 0.00 0.00 61 1022.5
20260831155035 71 115 1.0 4.0 0.00 0.00 0.00 64 1022.4
20260831154659 71 249 0.0 4.0 0.00 0.00 0.00 65 1022.4
20260831154032 70 102 1.0 5.0 0.00 0.00 0.00 63 1022.5
20260831153528 70 137 1.0 5.0 0.00 0.00 0.00 67 1022.5
20260831153054 70 0 0.0 6.0 0.00 0.00 0.00 66 1022.5
20260831152528 70 126 2.0 6.0 0.00 0.00 0.00 68 1022.5
20260831152034 69 0 1.0 6.0 0.00 0.00 0.00 66 1022.5
20260831151548 69 168 1.0 8.0 0.00 0.00 0.00 68 1022.4
20260831151029 68 0 0.0 8.0 0.00 0.00 0.00 66 1022.4
20260831150532 68 38 3.0 8.0 0.00 0.00 0.00 65 1022.4
20260831150057 68 59 3.0 6.0 0.00 0.00 0.00 66 1022.2
20260831145534 68 37 2.0 5.0 0.00 0.00 0.00 66 1022.3
20260831145029 68 92 2.0 4.0 0.00 0.00 0.00 63 1022.6
20260831144556 69 84 0.0 3.0 0.00 0.00 0.00 61 1022.5
20260831144032 69 0 0.0 3.0 0.00 0.00 0.00 61 1022.5
20260831143531 70 261 0.0 4.0 0.00 0.00 0.00 61 1022.4
20260831143109 70 225 1.0 4.0 0.00 0.00 0.00 63 1022.3
20260831142532 71 230 1.0 4.0 0.00 0.00 0.00 61 1022.6
20260831142032 71 0 0.0 0.0 0.00 0.00 0.00 60 1022.4
20260831141613 71 0 0.0 0.0 0.00 0.00 0.00 62 1022.4
20260831141031 70 0 0.0 0.0 0.00 0.00 0.00 61 1022.3
20260831140531 69 0 0.0 1.0 0.00 0.00 0.00 64 1022.4
20260831140056 68 0 0.0 1.0 0.00 0.00 0.00 62 1022.4
20260831135531 69 0 0.0 3.0 0.00 0.00 0.00 64 1022.4
20260831135031 68 0 0.0 3.0 0.00 0.00 0.00 66 1022.3
20260831134545 68 0 0.0 3.0 0.00 0.00 0.00 67 1022.4
20260831134029 67 0 0.0 7.0 0.00 0.00 0.00 67 1022.3
20260831133528 66 0 1.0 7.0 0.00 0.00 0.00 71 1022.3
20260831133054 66 96 4.0 6.0 0.00 0.00 0.00 66 1022.3
20260831132529 67 66 1.0 5.0 0.00 0.00 0.00 69 1022.3
20260831132030 67 57 2.0 5.0 0.00 0.00 0.00 68 1022.3
20260831131555 67 60 0.0 4.0 0.00 0.00 0.00 69 1022.3
20260831131029 66 0 0.0 2.0 0.00 0.00 0.00 72 1022.2
20260831130533 66 0 0.0 4.0 0.00 0.00 0.00 74 1022.3
20260831130101 65 0 1.0 5.0 0.00 0.00 0.00 74 1022.3
20260831125531 65 0 0.0 5.0 0.00 0.00 0.00 76 1022.2
20260831125031 64 89 1.0 4.0 0.00 0.00 0.00 76 1022.2
20260831124608 64 0 0.0 4.0 0.00 0.00 0.00 77 1022.2
20260831124033 64 51 0.0 3.0 0.00 0.00 0.00 79 1022.2
20260831123533 63 0 0.0 3.0 0.00 0.00 0.00 80 1022.2
20260831123056 63 0 1.0 3.0 0.00 0.00 0.00 80 1022.2
20260831122532 62 0 0.0 2.0 0.00 0.00 0.00 80 1022.1
20260831122029 62 289 0.0 2.0 0.00 0.00 0.00 81 1022.1
20260831121549 62 188 0.0 3.0 0.00 0.00 0.00 83 1022.1
20260831121031 61 0 0.0 3.0 0.00 0.00 0.00 84 1022.1
20260831120530 61 331 0.0 3.0 0.00 0.00 0.00 85 1022.1
20260831120051 60 100 0.0 3.0 0.00 0.00 0.00 87 1022.0
20260831115529 60 0 0.0 3.0 0.00 0.00 0.00 88 1022.0
20260831115033 59 0 0.0 2.0 0.00 0.00 0.00 90 1021.9
20260831114557 59 0 0.0 4.0 0.00 0.00 0.00 90 1021.9
20260831114029 59 0 1.0 4.0 0.00 0.00 0.00 91 1021.9
20260831113528 58 213 0.0 4.0 0.00 0.00 0.00 92 1021.7
20260831113056 58 0 0.0 4.0 0.00 0.00 0.00 93 1021.6
20260831112529 58 0 0.0 4.0 0.00 0.00 0.00 94 1021.7
20260831112029 57 0 0.0 2.0 0.00 0.00 0.00 94 1021.6
20260831111550 57 0 0.0 1.0 0.00 0.00 0.00 94 1021.5
20260831111030 56 0 0.0 4.0 0.00 0.00 0.00 94 1021.5
20260831110531 56 0 0.0 4.0 0.00 0.00 0.00 94 1021.4
20260831110100 56 0 0.0 4.0 0.00 0.00 0.00 94 1021.5
20260831105530 56 250 0.0 2.0 0.00 0.00 0.00 94 1021.4
20260831105029 56 0 0.0 0.0 0.00 0.00 0.00 94 1021.4
20260831104557 55 0 0.0 0.0 0.00 0.00 0.00 94 1021.4
20260831104030 55 0 0.0 0.0 0.00 0.00 0.00 94 1021.4
20260831103529 55 0 0.0 0.0 0.00 0.00 0.00 94 1021.5
20260831103058 55 0 0.0 0.0 0.00 0.00 0.00 94 1021.5
20260831102529 55 0 0.0 0.0 0.00 0.00 0.00 93 1021.5
20260831102033 55 0 0.0 0.0 0.00 0.00 0.00 93 1021.5
20260831101611 55 0 0.0 0.0 0.00 0.00 0.00 93 1021.5
20260831101034 55 0 0.0 0.0 0.00 0.00 0.00 93 1021.5
20260831100528 55 0 0.0 0.0 0.00 0.00 0.00 93 1021.4
20260831100058 56 0 0.0 0.0 0.00 0.00 0.00 93 1021.4
20260831095532 56 0 0.0 0.0 0.00 0.00 0.00 93 1021.3
20260831095031 56 0 0.0 0.0 0.00 0.00 0.00 93 1021.4
20260831094556 56 0 0.0 0.0 0.00 0.00 0.00 93 1021.4
20260831094027 55 0 0.0 1.0 0.00 0.00 0.00 93 1021.4
20260831093533 55 0 0.0 3.0 0.00 0.00 0.00 93 1021.2
20260831093054 55 0 0.0 3.0 0.00 0.00 0.00 94 1021.2
20260831092529 55 196 0.0 2.0 0.00 0.00 0.00 94 1021.2
20260831092029 55 0 0.0 2.0 0.00 0.00 0.00 94 1021.1
20260831091549 55 0 0.0 2.0 0.00 0.00 0.00 95 1021.1
20260831091034 55 0 0.0 2.0 0.00 0.00 0.00 95 1021.1
20260831090531 55 0 0.0 2.0 0.00 0.00 0.00 95 1021.1
20260831090103 55 0 0.0 2.0 0.00 0.00 0.00 95 1021.1
20260831085530 56 0 0.0 3.0 0.00 0.00 0.00 94 1021.1
20260831085030 56 0 0.0 3.0 0.00 0.00 0.00 94 1021.1
20260831084556 56 234 0.0 4.0 0.00 0.00 0.00 95 1021.0
20260831084035 56 215 0.0 4.0 0.00 0.00 0.00 95 1021.0
20260831083531 56 228 1.0 4.0 0.00 0.00 0.00 95 1021.0
20260831083052 56 0 1.0 4.0 0.00 0.00 0.00 95 1021.1
20260831082533 56 0 1.0 4.0 0.00 0.00 0.00 95 1021.0
20260831082033 57 0 0.0 4.0 0.00 0.00 0.00 95 1021.0
20260831081551 57 261 1.0 4.0 0.00 0.00 0.00 95 1021.0
20260831081033 57 0 0.0 4.0 0.00 0.00 0.00 96 1021.0
20260831080532 56 315 0.0 4.0 0.00 0.00 0.00 96 1020.9
20260831080104 57 46 0.0 4.0 0.00 0.00 0.00 96 1020.9
20260831075532 56 297 0.0 2.0 0.00 0.00 0.00 96 1020.8
20260831075032 57 0 0.0 0.0 0.00 0.00 0.00 96 1020.9
20260831074558 57 0 0.0 3.0 0.00 0.00 0.00 96 1020.9
20260831074032 57 0 0.0 3.0 0.00 0.00 0.00 95 1020.8
20260831073532 57 0 0.0 2.0 0.00 0.00 0.00 95 1020.8
20260831073050 57 0 0.0 3.0 0.00 0.00 0.00 95 1020.9
20260831072532 57 0 0.0 4.0 0.00 0.00 0.00 95 1020.9
20260831072033 57 0 0.0 4.0 0.00 0.00 0.00 95 1020.8
20260831071555 57 232 0.0 3.0 0.00 0.00 0.00 96 1020.8
20260831071032 57 0 0.0 6.0 0.00 0.00 0.00 95 1020.8
20260831070534 57 0 0.0 6.0 0.00 0.00 0.00 95 1020.6
20260831070059 57 0 1.0 6.0 0.00 0.00 0.00 95 1020.7
20260831065532 57 0 0.0 5.0 0.00 0.00 0.00 95 1020.6
20260831065032 57 202 1.0 7.0 0.00 0.00 0.00 95 1020.7
20260831064556 57 270 1.0 7.0 0.00 0.00 0.00 95 1020.6
20260831064033 57 0 0.0 6.0 0.00 0.00 0.00 95 1020.7
20260831063531 57 264 1.0 6.0 0.00 0.00 0.00 95 1020.5
20260831063047 57 0 2.0 6.0 0.00 0.00 0.00 95 1020.6
20260831062533 57 256 0.0 6.0 0.00 0.00 0.00 95 1020.6
20260831062033 57 267 1.0 8.0 0.00 0.00 0.00 95 1020.7
20260831061601 57 273 3.0 8.0 0.00 0.00 0.00 95 1020.7
20260831061033 57 251 2.0 7.0 0.00 0.00 0.00 95 1020.7
20260831060532 57 226 3.0 10.0 0.00 0.00 0.00 95 1020.6
20260831060106 57 250 2.0 10.0 0.00 0.00 0.00 95 1020.8
20260831055529 57 264 3.0 10.0 0.00 0.00 0.00 95 1020.7
20260831055032 57 254 3.0 8.0 0.00 0.00 0.00 95 1020.7
20260831054554 57 269 2.0 7.0 0.00 0.00 0.00 95 1020.6
20260831054034 57 251 3.0 12.0 0.00 0.00 0.00 95 1020.7
20260831053529 57 215 3.0 12.0 0.00 0.00 0.00 95 1020.6
20260831053050 57 227 4.0 12.0 0.00 0.00 0.00 95 1020.6
20260831052532 57 266 2.0 10.0 0.00 0.00 0.00 95 1020.6
20260831052032 58 254 4.0 10.0 0.00 0.00 0.00 95 1020.6
20260831051604 58 248 3.0 8.0 0.00 0.00 0.00 95 1020.5
20260831051033 58 257 3.0 8.0 0.00 0.00 0.00 95 1020.6
20260831050534 58 255 3.0 9.0 0.00 0.00 0.00 95 1020.6
20260831050051 58 264 3.0 9.0 0.00 0.00 0.00 94 1020.4
20260831045532 58 288 3.0 8.0 0.00 0.00 0.00 95 1020.5
20260831045032 58 259 3.0 9.0 0.00 0.00 0.00 94 1020.5
20260831044600 58 251 2.0 9.0 0.00 0.00 0.00 94 1020.5
20260831044036 58 168 3.0 9.0 0.00 0.00 0.00 94 1020.6
20260831043532 58 265 4.0 15.0 0.00 0.00 0.00 94 1020.5
20260831043057 58 276 4.0 15.0 0.00 0.00 0.00 94 1020.4
20260831042533 58 270 5.0 11.0 0.00 0.00 0.00 94 1020.4
20260831042032 58 227 3.0 9.0 0.00 0.00 0.00 94 1020.3
20260831041551 58 215 3.0 7.0 0.00 0.00 0.00 93 1020.1
20260831041034 58 258 1.0 6.0 0.00 0.00 0.00 93 1020.3
20260831040536 58 276 0.0 4.0 0.00 0.00 0.00 93 1020.3
20260831040058 58 0 0.0 4.0 0.00 0.00 0.00 94 1020.4
20260831035530 58 46 1.0 4.0 0.00 0.00 0.00 93 1020.5
20260831035034 58 128 0.0 4.0 0.00 0.00 0.00 93 1020.5
20260831034555 58 252 0.0 4.0 0.00 0.00 0.00 93 1020.5
20260831034032 59 0 1.0 4.0 0.00 0.00 0.00 93 1020.6
20260831033532 59 248 0.0 8.0 0.00 0.00 0.00 93 1020.6
20260831033055 59 165 1.0 8.0 0.00 0.00 0.00 93 1020.6
20260831032532 59 36 0.0 7.0 0.00 0.00 0.00 93 1020.7
20260831032032 59 0 1.0 8.0 0.00 0.00 0.00 93 1020.6
20260831031549 59 266 3.0 8.0 0.00 0.00 0.00 93 1020.2
20260831031029 59 269 3.0 8.0 0.00 0.00 0.00 93 1020.3
20260831030533 59 243 4.0 12.0 0.00 0.00 0.00 93 1020.5
20260831030113 59 255 3.0 12.0 0.00 0.00 0.00 93 1020.8
20260831025529 59 262 4.0 10.0 0.00 0.00 0.00 93 1020.6
20260831025032 59 257 3.0 10.0 0.00 0.00 0.00 93 1020.9
20260831024636 59 249 5.0 13.0 0.00 0.00 0.00 93 1020.9
20260831024112 59 231 4.0 13.0 0.00 0.00 0.00 93 1020.8
20260831023529 59 253 3.0 10.0 0.00 0.00 0.00 93 1020.7
20260831023052 59 285 3.0 10.0 0.00 0.00 0.00 92 1020.6
20260831022530 59 275 4.0 11.0 0.00 0.00 0.00 92 1020.4
20260831022030 59 244 4.0 11.0 0.00 0.00 0.00 92 1020.4
20260831021548 59 302 4.0 12.0 0.00 0.00 0.00 92 1020.3
20260831021031 59 184 5.0 12.0 0.00 0.00 0.00 92 1020.3
20260831020530 60 250 5.0 11.0 0.00 0.00 0.00 91 1020.2
20260831020046 60 240 3.0 10.0 0.00 0.00 0.00 91 1020.4
20260831015532 60 267 3.0 11.0 0.00 0.00 0.00 91 1020.4
20260831015028 60 268 4.0 11.0 0.00 0.00 0.00 91 1020.4
20260831014554 60 211 2.0 9.0 0.00 0.00 0.00 91 1020.4
20260831014030 60 255 1.0 6.0 0.00 0.00 0.00 91 1020.6
20260831013531 60 305 1.0 10.0 0.00 0.00 0.00 91 1020.6
20260831013109 60 74 2.0 15.0 0.00 0.00 0.00 91 1020.4
20260831012531 60 242 2.0 17.0 0.00 0.00 0.00 91 1020.0
20260831012029 60 248 7.0 17.0 0.00 0.00 0.00 91 1019.9
20260831011550 60 252 5.0 12.0 0.00 0.00 0.00 91 1020.0
20260831011034 60 178 4.0 13.0 0.00 0.00 0.00 91 1020.0
20260831010533 60 265 4.0 13.0 0.00 0.00 0.00 91 1020.0
20260831010100 60 268 4.0 10.0 0.00 0.00 0.00 91 1020.0
20260831005532 60 233 1.0 8.0 0.00 0.00 0.00 90 1020.0
20260831005033 60 244 3.0 8.0 0.00 0.00 0.00 90 1020.1
20260831004557 60 207 3.0 7.0 0.00 0.00 0.00 90 1019.9
20260831004034 60 192 1.0 15.0 0.00 0.00 0.00 90 1020.0
20260831003532 60 232 4.0 15.0 0.00 0.00 0.00 90 1019.6
20260831003051 60 201 3.0 14.0 0.00 0.00 0.00 90 1019.4
20260831002532 60 225 4.0 14.0 0.00 0.00 0.00 90 1019.2
20260831002029 60 244 4.0 14.0 0.00 0.00 0.00 90 1019.1
20260831001549 60 268 5.0 15.0 0.00 0.00 0.00 90 1018.8
20260831001034 60 238 6.0 15.0 0.00 0.00 0.00 89 1018.5
20260831000533 60 241 5.0 14.0 0.00 0.00 0.00 89 1018.5
20260831000059 60 260 5.0 14.0 0.00 0.00 0.00 89 1018.6
20260830235533 60 260 7.0 15.0 0.00 0.00 0.00 89 1018.5
20260830235034 60 273 7.0 15.0 0.00 0.00 0.00 89 1018.6
20260830234603 60 218 8.0 15.0 0.00 0.00 0.00 88 1018.6
20260830234032 60 257 6.0 14.0 0.00 0.00 0.00 89 1018.5
20260830233532 60 231 6.0 14.0 0.00 0.00 0.00 88 1018.5
20260830233058 61 245 6.0 12.0 0.00 0.00 0.00 89 1018.5
20260830232534 61 255 5.0 12.0 0.00 0.00 0.00 88 1018.8
20260830232032 61 265 6.0 12.0 0.00 0.00 0.00 88 1018.8
20260830231549 61 237 4.0 14.0 0.00 0.00 0.00 88 1019.0
20260830231028 62 268 6.0 14.0 0.00 0.00 0.00 87 1019.1
20260830230529 62 262 6.0 14.0 0.00 0.00 0.00 89 1019.2
20260830230057 62 288 5.0 14.0 0.00 0.00 0.00 88 1019.2
20260830225532 63 241 4.0 17.0 0.00 0.00 0.00 88 1019.1
20260830225029 63 254 7.0 17.0 0.00 0.00 0.00 86 1019.1
20260830224555 64 259 5.0 11.0 0.00 0.00 0.00 86 1019.3
20260830224033 65 246 4.0 14.0 0.00 0.00 0.00 85 1019.2
20260830223529 65 246 5.0 18.0 0.00 0.00 0.00 84 1019.0
20260830223048 65 221 7.0 18.0 0.00 0.00 0.00 83 1019.1
20260830222531 65 232 4.0 13.0 0.00 0.00 0.00 82 1019.1
20260830222032 65 231 4.0 13.0 0.00 0.00 0.00 82 1019.1
20260830221556 65 298 3.0 12.0 0.00 0.00 0.00 81 1019.1
20260830221029 66 188 4.0 11.0 0.00 0.00 0.00 81 1019.1
20260830220532 66 259 3.0 8.0 0.00 0.00 0.00 81 1019.1
20260830220057 66 232 3.0 9.0 0.00 0.00 0.00 80 1019.1
20260830215532 66 245 3.0 10.0 0.00 0.00 0.00 80 1019.1
20260830215033 66 237 3.0 10.0 0.00 0.00 0.00 79 1019.2
20260830214559 66 249 3.0 13.0 0.00 0.00 0.00 79 1019.1
20260830214028 67 252 3.0 13.0 0.00 0.00 0.00 79 1019.1
20260830213532 67 233 4.0 13.0 0.00 0.00 0.00 79 1019.1
20260830213050 67 234 1.0 8.0 0.00 0.00 0.00 79 1019.2
20260830212534 68 238 2.0 10.0 0.00 0.00 0.00 78 1019.2
20260830212029 68 180 4.0 10.0 0.00 0.00 0.00 77 1019.2
20260830211558 69 270 3.0 10.0 0.00 0.00 0.00 76 1019.1
20260830211033 69 254 4.0 10.0 0.00 0.00 0.00 75 1019.2
20260830210535 70 209 2.0 8.0 0.00 0.00 0.00 74 1019.4
20260830210058 71 257 2.0 8.0 0.00 0.00 0.00 73 1019.3
20260830205534 72 292 2.0 6.0 0.00 0.00 0.00 72 1019.5
20260830205034 71 221 2.0 8.0 0.00 0.00 0.00 72 1019.4
20260830204557 71 213 3.0 11.0 0.00 0.00 0.00 71 1019.5
20260830204034 71 246 2.0 11.0 0.00 0.00 0.00 71 1019.5
20260830203532 71 229 4.0 12.0 0.00 0.00 0.00 72 1019.5
20260830203114 71 190 4.0 12.0 0.00 0.00 0.00 71 1019.6
20260830202531 71 231 4.0 10.0 0.00 0.00 0.00 70 1019.5
20260830202030 71 220 4.0 10.0 0.00 0.00 0.00 70 1019.6
20260830201550 72 214 3.0 11.0 0.00 0.00 0.00 71 1019.7
20260830201033 72 167 3.0 11.0 0.00 0.00 0.00 70 1019.7